Location: *
(2.7500°S, 66.6833°W)
Time: 04:29:26
(UTC+00:00)

Cosmos 1933 - Pass Details

Date: 24 May 2024
Orbit: 532 x 540 km, 82.5° (Epoch: 23 June)

Event Time Altitude Azimuth Distance (km) Brightness Sun altitude
Exits shadow 23:20:45 16° 152° (SSE) 1,434 5.0 -14.3°
Maximum altitude 23:23:20 34° 94° (E) 898 3.9 -14.9°
Drops below altitude 10° 23:26:55 10° 28° (NNE) 1,787 5.9 -15.7°
Sets 23:29:12 0° 19° (NNE) 2,676 6.9 -16.3°
